SL-16 DEB, 22333

Orbit data source: Space-Track

SL-16 DEB, 22333 is space debris in LEO originally from a launch on Fri, 25 Dec 1992 UTC launched from the Tyuratam Missile And Space Complex (TTMTR). Debris objects in space refer to the collection of defunct objects orbiting the Earth. Examples of debris include non-operational satellites, rocket bodies, and fragments generated from explosions, collisions, or faulty payload assembly.

Loading next visibility...
Identifier
22333, 1992-093W
Orbit
LEO
Country
Flag of CISCIS
Related business
Manufacturer
Unknown
Mission
Spacecraft
Bus & Motor
Unknown
Mass
Unknown
Launch date (UTC)
1992-12-25 (33 years ago)
Launch vehicle
Unknown
Launch site
Tyuratam Missile And Space Complex (TTMTR)
Object type
Payload
Rocket body
Debris
Shape & HBR
Unknown shape, 0.2 m
Radar Cross Section
Medium (>0.1 m² and <1 m²)

Expand to show TLE details & history
Last TLE update: 11 hours ago

TLE from 11 hours ago
0 SL-16 DEB
1 22333U 92093W   25296.58012001  .00000719  00000-0  19871-3 0  9993
2 22333  71.0030 239.8060 0125543 231.2816 127.7047 14.45826236705862
Epoch: 2025-10-23T13:55Z
TLE epoch observation values (Epoch: 2025-10-23T13:55:22.368Z)
Latitude
-0.00002°
Longitude
-1.27454°
Altitude
797.099 km
Speed
7.426 km/s
True Right ascension
15h 59m 13s
True Declination
0° 00' 00"
Sunlit
Object was in daylight at epoch
Visualization orbit readout
Latitude
Unknown
Longitude
Unknown
Altitude
Unknown
Speed
Unknown
Apparent Right ascension
Unknown
Apparent Declination
Unknown
Sunlit
N/A
Visualization observer readout
Local Sidereal Time
19:35:34
Azimuth
Unknown
Elevation
Unknown
Doppler factor
Unknown
Orbital elements
Apogee altitude
826.535 km
Perigee altitude
647.879 km
Semi-major axis
7,115.344 km
Eccentricity
0.01255
Inclination
71.003°
RAAN
239.806°
Arg. of periapsis
231.2816°
True anomaly
128.832°
Mean anomaly
127.7047°
Eccentric anomaly
128.26943°
Mean motion
3.61617 °/min
Orbital period
99.55 mins
BSTAR
0.00019871
Loading maneuver chart data...
Computing Atmospheric mass density...
Loading historical data...
Loading historical data...
Loading historical data...
Loading historical data...
Loading historical data...
Loading historical data...
Loading historical data...

Documentation

Showing up to 5 results
|